Soldotna, AK

8:10 AM AKDT on July 27, 2017 (GMT -0800)
Soldotna

Weather History for PASX - March, 2014

Change the Weather History Date:

Wednesday, March 26, 2014

  Actual Average Record
Temperature  
Mean Temperature 26 °F -  
Max Temperature 39 °F 36 °F 47 °F (1970)
Min Temperature 12 °F 21 °F -11 °F (1976)
Degree Days  
Heating Degree Days 40    
Moisture  
Dew Point 11 °F    
Average Humidity 53    
Maximum Humidity 79    
Minimum Humidity 28    
Precipitation  
Precipitation 0.00 in - - ()
Sea Level Pressure  
Sea Level Pressure 29.73 in    
Wind  
Wind Speed 1 mph (NNE)    
Max Wind Speed 8 mph    
Max Gust Speed -    
Visibility 10 miles    
Events      
Averages and records for this station are not official NWS values.
T = Trace of Precipitation, MM = Missing Value Source: NWS Daily Summary

Daily Weather History Graph

Daily Weather History Graph

Search for Another Location

Airport or City:

Trip Planner

Search our weather history database for the weather conditions in past years. The results will help you decide how hot, cold, wet, or windy it might be!

Date:

Astronomy

Mar. 26, 2014 Rise Set
Actual Time 7:46 AM AKDT 8:34 PM AKDT
Civil Twilight 7:03 AM AKDT 9:17 PM AKDT
Nautical Twilight 6:11 AM AKDT 10:10 PM AKDT
Astronomical Twilight 5:12 AM AKDT 11:09 PM AKDT
Moon 6:06 AM AKDT (3/26) 3:25 PM AKDT (3/26)
Length of Visible Light 14h 13m
Length of Day
12h 48m
Waning Crescent, 20% of the Moon is Illuminated
Mar 26
Waning Crescent
Mar 30
New
Apr 7
First Quarter
Apr 14
Full
Apr 21
Last Quarter

Hourly Weather History & Observations

Time (AKDT) Temp. Windchill Dew Point Humidity Pressure Visibility Wind Dir Wind Speed Gust Speed Precip Events Conditions
12:16 AM 23.0 °F - 8.6 °F 54% 29.71 in 10.0 mi Calm Calm - N/A   Clear
12:36 AM 21.2 °F - 10.4 °F 63% 29.71 in 10.0 mi Calm Calm - N/A   Clear
12:56 AM 21.2 °F - 10.4 °F 63% 29.71 in 10.0 mi Calm Calm - N/A   Clear
1:16 AM 19.4 °F - 10.4 °F 68% 29.71 in 10.0 mi Calm Calm - N/A   Clear
1:36 AM 19.4 °F - 8.6 °F 63% 29.71 in 10.0 mi Calm Calm - N/A   Clear
1:56 AM 19.4 °F - 10.4 °F 68% 29.71 in 10.0 mi Calm Calm - N/A   Clear
2:16 AM 19.4 °F - 10.4 °F 68% 29.71 in 10.0 mi Calm Calm - N/A   Scattered Clouds
2:36 AM 19.4 °F - 10.4 °F 68% 29.71 in 10.0 mi Calm Calm - N/A   Mostly Cloudy
2:56 AM 19.4 °F - 10.4 °F 68% 29.71 in 10.0 mi Calm Calm - N/A   Mostly Cloudy
3:16 AM 19.4 °F - 12.2 °F 74% 29.71 in 10.0 mi Calm Calm - N/A   Partly Cloudy
3:36 AM 19.4 °F - 10.4 °F 68% 29.71 in 10.0 mi Calm Calm - N/A   Clear
3:56 AM 19.4 °F - 10.4 °F 68% 29.71 in 10.0 mi Calm Calm - N/A   Clear
4:16 AM 19.4 °F - 10.4 °F 68% 29.72 in 10.0 mi Calm Calm - N/A   Scattered Clouds
4:36 AM 19.4 °F - 10.4 °F 68% 29.71 in 10.0 mi Calm Calm - N/A   Mostly Cloudy
4:56 AM 17.6 °F - 10.4 °F 73% 29.71 in 10.0 mi Calm Calm - N/A   Scattered Clouds
5:16 AM 17.6 °F - 8.6 °F 68% 29.71 in 10.0 mi Calm Calm - N/A   Partly Cloudy
5:36 AM 15.8 °F - 8.6 °F 73% 29.71 in 10.0 mi Calm Calm - N/A   Clear
5:56 AM 17.6 °F - 10.4 °F 73% 29.71 in 10.0 mi Calm Calm - N/A   Clear
6:16 AM 14.0 °F - 6.8 °F 73% 29.72 in 10.0 mi Calm Calm - N/A   Clear
6:36 AM 14.0 °F - 6.8 °F 73% 29.72 in 10.0 mi Calm Calm - N/A   Clear
6:56 AM 14.0 °F - 8.6 °F 79% 29.72 in 10.0 mi Calm Calm - N/A   Clear
7:16 AM 12.2 °F - 6.8 °F 79% 29.72 in 10.0 mi Calm Calm - N/A   Partly Cloudy
7:36 AM 12.2 °F - 6.8 °F 79% 29.72 in 10.0 mi Calm Calm - N/A   Partly Cloudy
7:56 AM 14.0 °F - 8.6 °F 79% 29.72 in 10.0 mi Calm Calm - N/A   Mostly Cloudy
8:16 AM 14.0 °F - 6.8 °F 73% 29.72 in 10.0 mi Calm Calm - N/A   Overcast
8:36 AM 15.8 °F - 8.6 °F 73% 29.72 in 10.0 mi Calm Calm - N/A   Overcast
8:56 AM 15.8 °F - 10.4 °F 79% 29.72 in 10.0 mi Calm Calm - N/A   Overcast
9:16 AM 15.8 °F - 8.6 °F 73% 29.72 in 10.0 mi Calm Calm - N/A   Scattered Clouds
9:36 AM 17.6 °F - 10.4 °F 73% 29.72 in 10.0 mi Calm Calm - N/A   Clear
9:56 AM 19.4 °F - 12.2 °F 74% 29.73 in 10.0 mi Calm Calm - N/A   Clear
10:16 AM 23.0 °F - 12.2 °F 63% 29.73 in 10.0 mi Calm Calm - N/A   Clear
10:36 AM 24.8 °F - 17.6 °F 74% 29.73 in 10.0 mi Calm Calm - N/A   Clear
10:56 AM 28.4 °F 21.2 °F 15.8 °F 59% 29.73 in 10.0 mi North 6.9 mph - N/A   Clear
11:16 AM 30.2 °F 23.4 °F 15.8 °F 55% 29.73 in 10.0 mi NNE 6.9 mph - N/A   Clear
11:36 AM 32.0 °F 27.5 °F 14.0 °F 48% 29.73 in 10.0 mi NNE 4.6 mph - N/A   Clear
11:56 AM 33.8 °F 27.7 °F 15.8 °F 48% 29.73 in 10.0 mi NE 6.9 mph - N/A   Clear
12:16 PM 33.8 °F 27.7 °F 15.8 °F 48% 29.74 in 10.0 mi NE 6.9 mph - N/A   Clear
12:36 PM 33.8 °F 29.6 °F 14.0 °F 44% 29.74 in 10.0 mi NNE 4.6 mph - N/A   Clear
12:56 PM 35.6 °F 30.7 °F 14.0 °F 41% 29.74 in 10.0 mi NE 5.8 mph - N/A   Clear
1:16 PM 35.6 °F 29.9 °F 14.0 °F 41% 29.74 in 10.0 mi NNE 6.9 mph - N/A   Clear
1:36 PM 37.4 °F 33.8 °F 14.0 °F 38% 29.74 in 10.0 mi North 4.6 mph - N/A   Scattered Clouds
1:56 PM 37.4 °F 31.4 °F 12.2 °F 36% 29.74 in 10.0 mi NNE 8.1 mph - N/A   Scattered Clouds
2:16 PM 37.4 °F 32.1 °F 10.4 °F 33% 29.74 in 10.0 mi NNE 6.9 mph - N/A   Partly Cloudy
2:36 PM 37.4 °F 33.8 °F 10.4 °F 33% 29.74 in 10.0 mi North 4.6 mph - N/A   Mostly Cloudy
2:56 PM 37.4 °F 33.8 °F 8.6 °F 30% 29.74 in 10.0 mi NNE 4.6 mph - N/A   Partly Cloudy
3:16 PM 39.2 °F 37.0 °F 10.4 °F 31% 29.74 in 10.0 mi NNE 3.5 mph - N/A   Partly Cloudy
3:36 PM 39.2 °F 34.2 °F 10.4 °F 31% 29.74 in 10.0 mi NNE 6.9 mph - N/A   Partly Cloudy
3:56 PM 39.2 °F 35.9 °F 8.6 °F 28% 29.74 in 10.0 mi North 4.6 mph - N/A   Partly Cloudy
4:16 PM 39.2 °F 35.0 °F 8.6 °F 28% 29.74 in 10.0 mi NNE 5.8 mph - N/A   Scattered Clouds
4:36 PM 39.2 °F 35.0 °F 8.6 °F 28% 29.74 in 10.0 mi North 5.8 mph - N/A   Mostly Cloudy
4:56 PM 39.2 °F 35.0 °F 10.4 °F 31% 29.74 in 10.0 mi NNW 5.8 mph - N/A   Overcast
5:16 PM 39.2 °F 35.9 °F 10.4 °F 31% 29.74 in 10.0 mi North 4.6 mph - N/A   Mostly Cloudy
5:36 PM 39.2 °F 35.9 °F 10.4 °F 31% 29.74 in 10.0 mi North 4.6 mph - N/A   Mostly Cloudy
5:56 PM 39.2 °F 35.9 °F 10.4 °F 31% 29.74 in 10.0 mi NNE 4.6 mph - N/A   Partly Cloudy
6:16 PM 39.2 °F 35.0 °F 10.4 °F 31% 29.74 in 10.0 mi NE 5.8 mph - N/A   Scattered Clouds
6:36 PM 39.2 °F 37.0 °F 8.6 °F 28% 29.74 in 10.0 mi North 3.5 mph - N/A   Mostly Cloudy
6:56 PM 39.2 °F 37.0 °F 8.6 °F 28% 29.74 in 10.0 mi North 3.5 mph - N/A   Overcast
7:16 PM 39.2 °F 37.0 °F 8.6 °F 28% 29.74 in 10.0 mi NNW 3.5 mph - N/A   Overcast
7:36 PM 39.2 °F 37.0 °F 8.6 °F 28% 29.74 in 10.0 mi North 3.5 mph - N/A   Overcast
7:56 PM 37.4 °F - 8.6 °F 30% 29.74 in 10.0 mi Calm Calm - N/A   Overcast
8:16 PM 37.4 °F - 8.6 °F 30% 29.74 in 10.0 mi Calm Calm - N/A   Overcast
8:36 PM 35.6 °F - 8.6 °F 33% 29.75 in 10.0 mi Calm Calm - N/A   Overcast
8:56 PM 32.0 °F - 8.6 °F 38% 29.75 in 10.0 mi Calm Calm - N/A   Overcast
9:16 PM 30.2 °F - 10.4 °F 44% 29.76 in 10.0 mi Calm Calm - N/A   Overcast
9:36 PM 30.2 °F - 10.4 °F 44% 29.76 in 10.0 mi Calm Calm - N/A   Overcast
9:56 PM 28.4 °F - 10.4 °F 47% 29.76 in 10.0 mi Calm Calm - N/A   Overcast
10:16 PM 28.4 °F - 12.2 °F 51% 29.76 in 10.0 mi Calm Calm - N/A   Mostly Cloudy
10:36 PM 26.6 °F - 12.2 °F 55% 29.76 in 10.0 mi Calm Calm - N/A   Partly Cloudy
10:56 PM 26.6 °F - 12.2 °F 55% 29.77 in 10.0 mi Calm Calm - N/A   Clear
11:16 PM 24.8 °F - 14.0 °F 64% 29.77 in 10.0 mi Calm Calm - N/A   Clear
11:36 PM 24.8 °F - 12.2 °F 59% 29.77 in 10.0 mi Calm Calm - N/A   Clear
11:56 PM 26.6 °F - 10.4 °F 51% 29.77 in 10.0 mi Calm Calm - N/A   Clear